Location: Campillo
(40.8621°N, 4.2488°W)
Time: 12:06:37
(UTC+00:00)

ATLAS 5 CENTAUR R/B - Pass Details

Date: 11 May 2021
Orbit: 516 x 1141 km, 63.3° (Epoch: 02 May)

Event Time Altitude Azimuth Distance (km) Brightness Sun altitude
Rises 22:24:06 0° 308° (NW) 3,440 6.4 -25.8°
Reaches altitude 10° 22:27:12 10° 290° (WNW) 2,614 5.3 -26.1°
Maximum altitude 22:31:18 19° 249° (WSW) 2,179 4.4 -26.4°
Enters shadow 22:33:19 16° 227° (SW) 2,366 4.3 -26.6°
